Tracking 19827 objects as of 22-Aug-2019
HD Live streaming from Space Station
objects crossing your sky now

FENGYUN 1C DEB

Track FENGYUN 1C DEB now!
10-day predictions


NORAD ID: 31683
Int'l Code: 1999-025CCR
Perigee: 704.4 km
Apogee: 810.1 km
Inclination: 98.7 °
Period: 99.8 minutes
Semi major axis: 7128 km
RCS: 0.0138 m2 (small)
Launch date: May 10, 1999
Source: People's Republic of China (PRC)
Launch site: Taiyaun Space Center, China (TSC)

Note: This is SATELLITE DEBRIS
aabbcc
Your satellite tracking list
Your tracking list is empty




NASA's NSSDC Master Catalog

Two Line Element Set (TLE):
1 31683U 99025CCR 19232.28468562  .00000665  00000-0  20805-3 0  9999
2 31683  98.7402 259.1154 0074142  65.4822 295.4074 14.42542552640583
Source of the keplerian elements: AFSPC